N777MQ CYHM-CYYZ

Flight info

Callsign N777MQ
Flight time 0h 19m
Altitude 13000
Route LINNG LINNG3
Aircraft B77W/H-SDE1E2E3FGHIJ2J3J4J5M1RWXY/LB1D1

Departure

Time 2026-05-07 00:34
Airport John C. Munro Hamilton International Airport (CYHM)

Arrival

Time 2026-05-07 00:53
Airport Toronto Pearson International Airport (CYYZ)
Time Latitude Longitude Altitude Speed Heading
2026-05-07 00:30 43.16560 -79.92995 783 ft 2 kts 229°
2026-05-07 00:30 43.16572 -79.92974 784 ft 3 kts 238°
2026-05-07 00:30 43.16581 -79.92950 784 ft 3 kts 250°
2026-05-07 00:30 43.16587 -79.92925 784 ft 3 kts 265°
2026-05-07 00:31 43.16586 -79.92901 784 ft 2 kts 285°
2026-05-07 00:31 43.16586 -79.92897 784 ft 0 kts 287°
2026-05-07 00:32 43.16586 -79.92900 784 ft 2 kts 287°
2026-05-07 00:32 43.16596 -79.92943 784 ft 8 kts 287°
2026-05-07 00:32 43.16616 -79.93034 783 ft 12 kts 287°
2026-05-07 00:32 43.16636 -79.93161 784 ft 14 kts 263°
2026-05-07 00:33 43.16586 -79.93285 786 ft 16 kts 265°
2026-05-07 00:33 43.16651 -79.93414 786 ft 18 kts 325°
2026-05-07 00:33 43.16732 -79.93377 787 ft 15 kts 47°
2026-05-07 00:33 43.16893 -79.93129 784 ft 82 kts 48°
2026-05-07 00:34 43.17540 -79.92115 814 ft 196 kts 48°
2026-05-07 00:34 43.18456 -79.90634 2140 ft 204 kts 46°
2026-05-07 00:34 43.19393 -79.89142 3647 ft 220 kts 45°
2026-05-07 00:34 43.20465 -79.87444 4112 ft 250 kts 46°
2026-05-07 00:35 43.21349 -79.85313 4821 ft 269 kts 70°
2026-05-07 00:35 43.21779 -79.82753 5704 ft 281 kts 75°
2026-05-07 00:35 43.22215 -79.80109 6727 ft 287 kts 74°
2026-05-07 00:35 43.22679 -79.77411 7687 ft 296 kts 75°
2026-05-07 00:36 43.23166 -79.74644 8048 ft 301 kts 75°
2026-05-07 00:36 43.23670 -79.71831 8034 ft 304 kts 75°
2026-05-07 00:36 43.24180 -79.69029 8031 ft 300 kts 73°
2026-05-07 00:36 43.25088 -79.66578 8035 ft 292 kts 43°
2026-05-07 00:37 43.26764 -79.65141 8051 ft 284 kts 10°
2026-05-07 00:37 43.28675 -79.64607 8052 ft 282 kts
2026-05-07 00:37 43.30613 -79.64004 8051 ft 288 kts
2026-05-07 00:37 43.32557 -79.63356 8039 ft 285 kts
2026-05-07 00:38 43.34469 -79.62714 8023 ft 281 kts
2026-05-07 00:38 43.36367 -79.62081 8037 ft 280 kts
2026-05-07 00:38 43.38265 -79.61453 8042 ft 282 kts
2026-05-07 00:38 43.40135 -79.60801 8030 ft 279 kts 11°
2026-05-07 00:39 43.41978 -79.60086 8020 ft 273 kts 10°
2026-05-07 00:39 43.43799 -79.59414 8021 ft 270 kts
2026-05-07 00:39 43.45621 -79.58783 8029 ft 270 kts
2026-05-07 00:39 43.47448 -79.58181 8033 ft 270 kts
2026-05-07 00:40 43.49285 -79.57592 8035 ft 271 kts
2026-05-07 00:40 43.50502 -79.57208 8035 ft 271 kts
2026-05-07 00:40 43.52345 -79.56635 8027 ft 272 kts
2026-05-07 00:40 43.54189 -79.56065 8027 ft 272 kts
2026-05-07 00:41 43.56037 -79.55495 8046 ft 272 kts
2026-05-07 00:41 43.58478 -79.54730 8026 ft 271 kts 11°
2026-05-07 00:41 43.60217 -79.53495 8029 ft 302 kts 34°
2026-05-07 00:41 43.61834 -79.51370 8084 ft 332 kts 43°
2026-05-07 00:42 43.62873 -79.49848 7967 ft 327 kts 43°
2026-05-07 00:42 43.64366 -79.47620 7752 ft 304 kts 44°
2026-05-07 00:42 43.65776 -79.45516 7397 ft 296 kts 43°
2026-05-07 00:42 43.67145 -79.43492 7122 ft 281 kts 43°
2026-05-07 00:43 43.68456 -79.41565 7047 ft 270 kts 43°
2026-05-07 00:43 43.70112 -79.39141 7012 ft 257 kts 43°
2026-05-07 00:43 43.70958 -79.37907 7049 ft 268 kts 43°
2026-05-07 00:43 43.72263 -79.36004 7047 ft 277 kts 43°
2026-05-07 00:44 43.73605 -79.34041 7049 ft 284 kts 43°
2026-05-07 00:44 43.74951 -79.32069 7042 ft 287 kts 43°
2026-05-07 00:44 43.76305 -79.30082 6886 ft 279 kts 43°
2026-05-07 00:44 43.77616 -79.28156 6473 ft 272 kts 43°
2026-05-07 00:45 43.78911 -79.26255 5914 ft 270 kts 43°
2026-05-07 00:45 43.80200 -79.24378 5387 ft 267 kts 40°
2026-05-07 00:45 43.81723 -79.23052 4832 ft 254 kts 11°
2026-05-07 00:45 43.83421 -79.22947 4323 ft 243 kts 341°
2026-05-07 00:46 43.84838 -79.24066 4085 ft 232 kts 309°
2026-05-07 00:46 43.85555 -79.25995 4040 ft 227 kts 279°
2026-05-07 00:46 43.85503 -79.28177 4026 ft 230 kts 263°
2026-05-07 00:46 43.85205 -79.30348 4008 ft 235 kts 260°
2026-05-07 00:47 43.84870 -79.32558 4002 ft 234 kts 260°
2026-05-07 00:47 43.84492 -79.34686 3978 ft 220 kts 249°
2026-05-07 00:47 43.83675 -79.36395 3999 ft 209 kts 236°
2026-05-07 00:47 43.82764 -79.37955 3992 ft 207 kts 233°
2026-05-07 00:48 43.81809 -79.39436 3999 ft 206 kts 232°
2026-05-07 00:48 43.80833 -79.40880 4044 ft 204 kts 231°
2026-05-07 00:48 43.79882 -79.42267 4013 ft 191 kts 231°
2026-05-07 00:48 43.78990 -79.43569 3829 ft 186 kts 231°
2026-05-07 00:49 43.78123 -79.44833 3607 ft 176 kts 231°
2026-05-07 00:49 43.77313 -79.46014 3363 ft 169 kts 231°
2026-05-07 00:49 43.76507 -79.47193 3134 ft 168 kts 231°
2026-05-07 00:49 43.75707 -79.48359 2897 ft 162 kts 231°
2026-05-07 00:50 43.74963 -79.49442 2694 ft 149 kts 231°
2026-05-07 00:50 43.74269 -79.50464 2472 ft 144 kts 232°
2026-05-07 00:50 43.73578 -79.51481 2277 ft 146 kts 231°
2026-05-07 00:50 43.72873 -79.52506 2064 ft 147 kts 231°
2026-05-07 00:51 43.72164 -79.53528 1859 ft 147 kts 232°
2026-05-07 00:51 43.71461 -79.54545 1668 ft 147 kts 232°
2026-05-07 00:51 43.70775 -79.55552 1464 ft 146 kts 231°
2026-05-07 00:51 43.70075 -79.56568 1263 ft 146 kts 232°
2026-05-07 00:52 43.69382 -79.57580 1055 ft 144 kts 229°
2026-05-07 00:52 43.68695 -79.58574 822 ft 140 kts 230°
2026-05-07 00:52 43.68018 -79.59561 645 ft 142 kts 231°
2026-05-07 00:52 43.67355 -79.60524 575 ft 128 kts 229°
2026-05-07 00:53 43.66854 -79.61258 577 ft 79 kts 227°
2026-05-07 00:53 43.66582 -79.61656 571 ft 33 kts 237°
2026-05-07 00:53 43.66541 -79.61878 564 ft 17 kts 268°
2026-05-07 00:53 43.66507 -79.62051 568 ft 21 kts 256°
2026-05-07 00:54 43.66530 -79.62155 573 ft 10 kts 350°
2026-05-07 00:54 43.66592 -79.62104 577 ft 12 kts 39°
2026-05-07 00:54 43.66652 -79.62029 574 ft 12 kts 42°
2026-05-07 00:54 43.66731 -79.61929 577 ft 20 kts 42°
2026-05-07 00:55 43.66859 -79.61768 578 ft 29 kts 43°
2026-05-07 00:55 43.66984 -79.61611 577 ft 15 kts 42°
2026-05-07 00:55 43.67024 -79.61560 579 ft 7 kts 42°
2026-05-07 00:55 43.67086 -79.61483 578 ft 19 kts 42°
2026-05-07 00:56 43.67186 -79.61352 577 ft 18 kts 45°
2026-05-07 00:56 43.67270 -79.61272 573 ft 15 kts 346°
2026-05-07 00:56 43.67358 -79.61367 570 ft 17 kts 316°
2026-05-07 00:56 43.67448 -79.61485 573 ft 19 kts 316°
2026-05-07 00:57 43.67542 -79.61607 576 ft 17 kts 317°
2026-05-07 00:57 43.67633 -79.61663 571 ft 15 kts 24°
2026-05-07 00:57 43.67623 -79.61536 573 ft 17 kts 135°
2026-05-07 00:57 43.67538 -79.61417 572 ft 17 kts 128°
2026-05-07 00:58 43.67486 -79.61259 573 ft 20 kts 102°
2026-05-07 00:58 43.67494 -79.61193 575 ft 6 kts 38°
2026-05-07 00:58 43.67542 -79.61176 571 ft 9 kts
2026-05-07 00:58 43.67577 -79.61170 571 ft 0 kts